Dewpoint
75 75 74 73 73 72 72 72 72 72 72 70 70 70 69 70 70 69 68 68 69 68 67 68 67 68 66 66 66 66 66 65 65 64 65 65 64 62 61 61 61 62
75 75 75 74 74 73 73 72 73 73 73 72 71 70 70 70 68 68 69 68 69 68 68 67 68 68 67 65 66 65 66 66 64 63 64 64 64 63 61 62 62 63
75 75 74 74 72 73 72 73 73 73 71 71 71 71 70 70 70 69 69 68 69 66 67 68 68 67 66 66 66 65 65 66 65 62 64 64 63 63 64 57 59 60
76 76 74 74 73 73 73 73 73 73 71 70 70 70 70 70 69 68 69 69 68 66 66 67 67 66 67 66 67 65 65 66 65 64 63 64 65 64 64 64 62 61
76 76 75 74 74 74 74 73 72 72 71 70 70 72 72 71 70 69 69 67 67 66 67 67 66 66 67 66 66 66 65 64 65 66 65 64 65 64 64 64 63 62
77 77 77 75 75 75 74 73 73 71 71 68 71 71 71 70 69 68 68 66 64 64 65 66 66 65 65 66 67 67 65 63 63 64 63 63 63 63 61 62 62 62
76 77 77 75 74 74 74 74 75 73 72 70 72 72 71 69 69 68 68 66 64 66 65 66 67 66 66 66 68 68 68 67 65 65 64 63 64 63 61 62 63 63
76 76 76 76 75 74 75 75 74 74 74 72 72 72 71 68 68 67 67 67 65 66 67 67 68 68 65 66 66 67 67 65 65 66 65 64 64 64 63 62 63 63
75 76 77 76 75 74 72 72 73 73 73 72 72 70 70 69 68 66 67 67 67 67 67 67 69 67 66 66 66 66 67 65 64 65 64 63 63 63 63 63 63 63
76 76 75 74 73 73 71 71 70 72 73 72 71 69 69 70 69 67 67 68 66 67 68 67 68 67 67 67 66 65 66 67 68 66 64 63 63 63 62 62 62 63
75 74 75 75 73 71 70 69 67 69 72 71 70 68 69 69 69 68 68 68 66 67 67 67 67 67 67 66 65 65 66 66 66 65 64 63 63 63 62 63 63 62
75 75 75 74 72 70 69 69 66 70 71 70 70 68 69 68 68 66 67 69 69 67 66 68 68 68 68 66 64 64 66 65 65 64 63 64 63 62 62 63 63 63
75 75 74 73 73 72 70 69 67 68 68 69 69 68 67 67 66 67 68 69 68 64 65 68 67 67 67 67 66 66 66 65 64 64 63 63 62 61 61 61 61 61
75 76 76 76 74 74 73 71 69 67 67 69 70 67 65 66 65 66 68 69 66 65 68 69 68 65 65 67 67 65 65 65 65 64 62 63 63 62 62 60 60 59
77 77 76 76 74 74 73 72 72 70 68 68 70 69 66 65 66 67 69 69 69 69 69 68 65 63 65 66 66 65 65 64 65 65 63 63 63 62 62 62 61 60
77 77 77 76 75 74 74 74 72 71 68 69 70 69 68 67 69 69 67 66 66 67 66 64 64 65 63 60 63 65 66 65 65 64 64 64 63 63 62 61 61 59
77 77 76 76 75 75 74 74 73 72 72 73 72 70 69 69 68 66 66 65 68 67 64 63 62 61 60 60 61 63 65 65 64 64 64 64 64 64 63 63 62 61
76 76 76 76 76 75 74 74 73 73 72 72 70 69 69 69 66 68 68 66 65 63 61 62 62 59 59 59 60 61 63 66 63 63 63 64 64 63 62 62 62 60
77 76 76 75 75 75 75 74 74 73 73 72 71 70 69 70 69 68 65 64 64 63 60 61 60 59 58 59 60 60 61 63 62 63 62 62 62 61 61 62 63 68
76 76 76 76 75 74 74 73 73 73 72 71 71 71 72 71 69 67 66 66 64 64 62 60 61 58 58 58 59 59 60 61 63 61 61 61 61 61 60 62 70 67
76 76 76 75 74 73 73 72 72 73 72 71 69 69 70 70 68 67 66 65 62 61 61 60 60 58 57 57 57 57 58 60 64 63 63 63 62 62 62 62 67 66
76 75 76 75 73 72 72 72 72 72 72 71 70 69 70 68 67 65 65 64 63 63 62 63 60 57 57 57 57 57 59 64 65 66 65 63 63 63 63 66 68 66
76 75 75 74 73 72 72 72 72 72 71 71 70 68 67 67 66 64 65 63 64 64 63 63 61 61 56 55 56 56 58 64 65 65 65 65 64 65 66 68 68 67
76 75 75 74 73 72 72 70 71 70 70 71 69 67 66 65 65 64 64 65 63 63 62 62 61 64 55 54 54 55 60 65 66 65 66 67 67 67 68 68 67 66
76 75 75 74 73 72 70 70 70 70 70 70 68 68 67 68 66 65 63 63 60 59 64 62 60 61 54 54 53 54 61 66 66 65 67 66 66 67 67 67 68 66
75 75 75 74 73 72 70 70 70 69 68 68 67 67 66 65 65 64 64 62 61 61 60 61 61 64 60 53 53 53 56 67 68 66 63 66 66 66 66 67 66 65